contact:dominique.lefevre@mio.osupytheas.fr, maurice.libes@osupytheas.fr, didier.mallarino@osupytheas.fr
Project:EMSO http://www.emso-fr.org/EMSO-France
Depth: 2436.0 m
Title:EMSO Ligure Ouest : Data MII capteur CSTAR
DateTime,Latitude,Longitude,Instrument_Serial,Reference_Counts,Signal_Counts,Corrected_Signal_raw_counts,Calculated_Beam_c_inverse_meters,Internal_thermistor_counts
DateTime,Latitude,Longitude,Instrument_Serial,Reference_Counts,Signal_Counts,Corrected_Signal_raw_counts,Calculated_Beam_c_inverse_meters,Internal_thermistor_counts
2020-09-29T18:23:30,42.805,6.029,CST-1368DR,6107,8547,15114,0.131,551
2020-09-29T18:24:26,42.805,6.029,CST-1368DR,6103,8539,15110,0.132,550
2020-09-29T18:27:27,42.805,6.029,CST-1368DR,6101,8539,15115,0.130,551
2020-09-29T18:30:29,42.805,6.029,CST-1368DR,6099,8536,15115,0.130,551
2020-09-29T18:33:30,42.805,6.029,CST-1368DR,6098,8534,15114,0.131,551
2020-09-29T18:36:32,42.805,6.029,CST-1368DR,6097,8529,15107,0.133,551
2020-09-29T18:39:34,42.805,6.029,CST-1368DR,6096,8530,15110,0.132,551
2020-09-29T18:42:35,42.805,6.029,CST-1368DR,6095,8528,15110,0.132,551
2020-09-29T18:45:37,42.805,6.029,CST-1368DR,6094,8528,15111,0.131,551
2020-09-29T18:48:38,42.805,6.029,CST-1368DR,6093,8527,15112,0.131,551
2020-09-29T18:51:40,42.805,6.029,CST-1368DR,6092,8525,15111,0.131,551
2020-09-29T18:54:42,42.805,6.029,CST-1368DR,6091,8524,15111,0.131,551
2020-09-29T18:57:43,42.805,6.029,CST-1368DR,6090,8522,15111,0.131,551
2020-09-29T19:00:45,42.805,6.029,CST-1368DR,6089,8523,15114,0.131,551
2020-09-29T19:03:46,42.805,6.029,CST-1368DR,6088,8520,15111,0.131,551
2020-09-29T19:06:48,42.805,6.029,CST-1368DR,6088,8520,15112,0.131,551
2020-09-29T19:09:49,42.805,6.029,CST-1368DR,6087,8518,15110,0.132,551
2020-09-29T19:12:51,42.805,6.029,CST-1368DR,6086,8518,15112,0.131,550
2020-09-29T19:15:53,42.805,6.029,CST-1368DR,6085,8516,15112,0.131,551
2020-09-29T19:18:54,42.805,6.029,CST-1368DR,6085,8515,15110,0.132,551
2020-09-29T19:21:56,42.805,6.029,CST-1368DR,6084,8510,15103,0.134,551
2020-09-29T19:24:57,42.805,6.029,CST-1368DR,6083,8513,15112,0.131,551
2020-09-29T19:27:59,42.805,6.029,CST-1368DR,6083,8513,15111,0.131,551
2020-09-29T19:31:01,42.805,6.029,CST-1368DR,6082,8510,15109,0.132,551
2020-09-29T19:34:02,42.805,6.029,CST-1368DR,6081,8512,15114,0.131,551
2020-09-29T19:37:04,42.805,6.029,CST-1368DR,6081,8510,15110,0.132,551
2020-09-29T19:40:05,42.805,6.029,CST-1368DR,6080,8509,15111,0.131,551
2020-09-29T19:43:07,42.805,6.029,CST-1368DR,6080,8509,15110,0.132,551
2020-09-29T19:46:08,42.805,6.029,CST-1368DR,6079,8507,15109,0.132,551
2020-09-29T19:49:10,42.805,6.029,CST-1368DR,6078,8506,15110,0.132,551
2020-09-29T19:52:12,42.805,6.029,CST-1368DR,6078,8507,15111,0.131,551
2020-09-29T19:55:13,42.805,6.029,CST-1368DR,6077,8505,15110,0.132,551
2020-09-29T19:58:15,42.805,6.029,CST-1368DR,6077,8504,15109,0.132,551
2020-09-29T20:01:16,42.805,6.029,CST-1368DR,6076,8504,15111,0.131,551
2020-09-29T20:04:18,42.805,6.029,CST-1368DR,6075,8502,15111,0.131,551
2020-09-29T20:07:20,42.805,6.029,CST-1368DR,6075,8502,15110,0.132,551
2020-09-29T20:10:21,42.805,6.029,CST-1368DR,6074,8502,15112,0.131,551
2020-09-29T20:13:23,42.805,6.029,CST-1368DR,6074,8501,15110,0.132,551
2020-09-29T20:16:24,42.805,6.029,CST-1368DR,6073,8500,15111,0.131,551
2020-09-29T20:19:26,42.805,6.029,CST-1368DR,6073,8500,15111,0.131,551
2020-09-29T20:22:27,42.805,6.029,CST-1368DR,6072,8498,15111,0.131,551
2020-09-29T20:25:29,42.805,6.029,CST-1368DR,6072,8496,15107,0.133,551
2020-09-29T20:28:31,42.805,6.029,CST-1368DR,6072,8496,15107,0.133,551
2020-09-29T20:31:32,42.805,6.029,CST-1368DR,6071,8496,15109,0.132,551
2020-09-29T20:34:34,42.805,6.029,CST-1368DR,6071,8487,15093,0.136,551
2020-09-29T20:37:35,42.805,6.029,CST-1368DR,6070,8496,15110,0.132,551
2020-09-29T20:40:37,42.805,6.029,CST-1368DR,6070,8494,15108,0.132,551
2020-09-29T20:43:38,42.805,6.029,CST-1368DR,6069,8494,15110,0.132,550
2020-09-29T20:46:40,42.805,6.029,CST-1368DR,6069,8493,15109,0.132,551
2020-09-29T20:49:42,42.805,6.029,CST-1368DR,6068,8493,15110,0.132,551
2020-09-29T20:52:43,42.805,6.029,CST-1368DR,6067,8493,15113,0.131,551
2020-09-29T20:55:45,42.805,6.029,CST-1368DR,6067,8492,15111,0.131,551
2020-09-29T20:58:46,42.805,6.029,CST-1368DR,6067,8491,15110,0.132,551
2020-09-29T21:01:48,42.805,6.029,CST-1368DR,6066,8490,15109,0.132,551
2020-09-29T21:04:50,42.805,6.029,CST-1368DR,6066,8491,15111,0.131,551
2020-09-29T21:07:51,42.805,6.029,CST-1368DR,6065,8488,15109,0.132,551
2020-09-29T21:10:53,42.805,6.029,CST-1368DR,6065,8488,15109,0.132,551
2020-09-29T21:13:54,42.805,6.029,CST-1368DR,6065,8488,15109,0.132,551
2020-09-29T21:16:56,42.805,6.029,CST-1368DR,6064,8486,15108,0.132,551
2020-09-29T21:19:57,42.805,6.029,CST-1368DR,6064,8487,15109,0.132,551
2020-09-29T21:22:59,42.805,6.029,CST-1368DR,6064,8486,15107,0.133,551
2020-09-29T21:26:01,42.805,6.029,CST-1368DR,6063,8486,15110,0.132,551
2020-09-29T21:29:02,42.805,6.029,CST-1368DR,6063,8485,15108,0.132,551
2020-09-29T21:32:04,42.805,6.029,CST-1368DR,6062,8484,15108,0.132,551
2020-09-29T21:35:05,42.805,6.029,CST-1368DR,6062,8484,15109,0.132,551
2020-09-29T21:38:07,42.805,6.029,CST-1368DR,6061,8483,15110,0.132,551
2020-09-29T21:41:09,42.805,6.029,CST-1368DR,6061,8483,15109,0.132,551
2020-09-29T21:44:10,42.805,6.029,CST-1368DR,6060,8482,15110,0.132,551
2020-09-29T21:47:12,42.805,6.029,CST-1368DR,6060,8482,15110,0.132,551
2020-09-29T21:50:13,42.805,6.029,CST-1368DR,6060,8482,15110,0.132,551
2020-09-29T21:53:15,42.805,6.029,CST-1368DR,6059,8481,15111,0.131,551
2020-09-29T21:56:16,42.805,6.029,CST-1368DR,6059,8479,15107,0.133,551
2020-09-29T21:59:18,42.805,6.029,CST-1368DR,6059,8480,15108,0.132,551
2020-09-29T22:02:20,42.805,6.029,CST-1368DR,6058,8478,15108,0.132,550
2020-09-29T22:05:21,42.805,6.029,CST-1368DR,6058,8479,15108,0.132,551
2020-09-29T22:08:23,42.805,6.029,CST-1368DR,6057,8479,15111,0.131,551
2020-09-29T22:11:24,42.805,6.029,CST-1368DR,6057,8478,15110,0.132,551
2020-09-29T22:14:26,42.805,6.029,CST-1368DR,6057,8476,15107,0.133,551
2020-09-29T22:17:27,42.805,6.029,CST-1368DR,6056,8476,15109,0.132,551
2020-09-29T22:20:29,42.805,6.029,CST-1368DR,6056,8477,15110,0.132,551
2020-09-29T22:23:31,42.805,6.029,CST-1368DR,6056,8476,15109,0.132,551
2020-09-29T22:26:32,42.805,6.029,CST-1368DR,6055,8475,15110,0.132,551
2020-09-29T22:29:34,42.805,6.029,CST-1368DR,6055,8474,15108,0.132,551
2020-09-29T22:32:35,42.805,6.029,CST-1368DR,6055,8475,15109,0.132,551
2020-09-29T22:35:37,42.805,6.029,CST-1368DR,6054,8474,15109,0.132,551
2020-09-29T22:38:39,42.805,6.029,CST-1368DR,6054,8473,15108,0.132,551
2020-09-29T22:41:40,42.805,6.029,CST-1368DR,6054,8473,15108,0.132,551
2020-09-29T22:44:42,42.805,6.029,CST-1368DR,6053,8471,15107,0.133,551
2020-09-29T22:47:43,42.805,6.029,CST-1368DR,6053,8472,15109,0.132,551
2020-09-29T22:50:45,42.805,6.029,CST-1368DR,6052,8472,15110,0.132,551
2020-09-29T22:53:46,42.805,6.029,CST-1368DR,6052,8470,15108,0.132,551
2020-09-29T22:56:48,42.805,6.029,CST-1368DR,6052,8469,15106,0.133,551
2020-09-29T22:59:50,42.805,6.029,CST-1368DR,6051,8469,15108,0.132,551
2020-09-29T23:02:51,42.805,6.029,CST-1368DR,6051,8469,15108,0.132,551
2020-09-29T23:05:53,42.805,6.029,CST-1368DR,6051,8469,15108,0.132,551
2020-09-29T23:08:54,42.805,6.029,CST-1368DR,6050,8469,15110,0.132,551
2020-09-29T23:11:56,42.805,6.029,CST-1368DR,6050,8469,15109,0.132,551
2020-09-29T23:14:58,42.805,6.029,CST-1368DR,6050,8468,15109,0.132,551
2020-09-29T23:17:59,42.805,6.029,CST-1368DR,6049,8467,15109,0.132,551
2020-09-29T23:21:01,42.805,6.029,CST-1368DR,6049,8465,15106,0.133,551
2020-09-29T23:24:02,42.805,6.029,CST-1368DR,6049,8466,15107,0.133,551
2020-09-29T23:27:04,42.805,6.029,CST-1368DR,6048,8466,15110,0.132,551
2020-09-29T23:30:05,42.805,6.029,CST-1368DR,6048,8465,15108,0.132,551
2020-09-29T23:33:07,42.805,6.029,CST-1368DR,6048,8466,15109,0.132,551
2020-09-29T23:36:09,42.805,6.029,CST-1368DR,6048,8464,15107,0.133,551
2020-09-29T23:39:10,42.805,6.029,CST-1368DR,6047,8464,15109,0.132,551
2020-09-29T23:42:12,42.805,6.029,CST-1368DR,6047,8465,15109,0.132,551
2020-09-29T23:45:13,42.805,6.029,CST-1368DR,6047,8463,15107,0.133,551
2020-09-29T23:48:15,42.805,6.029,CST-1368DR,6046,8463,15109,0.132,551
2020-09-29T23:51:16,42.805,6.029,CST-1368DR,6046,8463,15108,0.132,551
2020-09-29T23:54:18,42.805,6.029,CST-1368DR,6046,8462,15108,0.132,551
2020-09-29T23:57:20,42.805,6.029,CST-1368DR,6045,8462,15110,0.132,551
